{"data":{"norad_id":55570,"epoch":"2026-09-20T16:24:25.068672Z","epoch_age_seconds":84503,"freshness":"FRESH","line1":"1 55570U 23020B   26263.68362348 -.00000834  00000+0 -20767-4 0  9990","line2":"2 55570  43.0059 344.0646 0001838 284.5101  75.5546 15.27569797198731","mean_motion":15.27569797,"eccentricity":0.0001838,"inclination_deg":43.0059,"raan_deg":344.0646,"arg_perigee_deg":284.5101,"mean_anomaly_deg":75.5546,"bstar":-2.0767e-5,"rev_number":19873,"period_min":94.267378343564,"perigee_km":481.81855604237,"apogee_km":484.34073928205,"semimajor_km":6861.2166476622,"source":"CELESTRAK","updated_at":"2026-09-21T09:00:33.262360Z"}}